Regional Weather Roundup
Issued by NWS Mobile, AL

Home | Current Version | Previous Version | Text Only | Print | Product List | Glossary On
Versions: 1 2 3 4 5 6 7 8 9 10 11 12 13 14 15 16 17 18 19 20 21 22 23 24 25 26 27 28 29 30 31 32 33 34 35 36 37 38 39 40 41 42 43 44 45 46 47 48 49 50
000
ASUS44 KMOB 290310
RWRMOB
REGIONAL WEATHER ROUNDUP
NATIONAL WEATHER SERVICE MOBILE AL
900 PM CST SUN DEC 28 2014

NOTE: "FAIR" INDICATES FEW OR NO CLOUDS BELOW 12,000 FEET WITH NO
      SIGNIFICANT WEATHER AND/OR OBSTRUCTIONS TO VISIBILITY.

  * THESE STATIONS ARE PART OF THE UNIVERSITY OF SOUTH ALABAMA
    MESONET AND ARE NOT UNDER NWS OR FAA QUALITY CONTROL.

ALZ061>064-290400-
COASTAL ALABAMA

CITY           SKY/WX    TMP DP  RH WIND       PRES   REMARKS
MOBILE REG APT CLOUDY    63  62  97 NW6       30.05S
BROOKLEY FIELD CLOUDY    65  64  97 N8        30.06S
USA CAMPUS*      N/A     66  64  94 CALM      30.05R
DOG RIVER*     NOT AVBL


CITY           SKY/WX    TMP DP  RH WIND       PRES   REMARKS
MOUNT VERNON*  NOT AVBL
SARALAND*      NOT AVBL
BAY MINETTE*   NOT AVBL
LOXLEY*        NOT AVBL
ROBERTSDALE*     N/A     63  63 100 CALM      30.05R
FAIRHOPE*        N/A     63  63 100 W5        30.05
ELBERTA*         N/A     63  63 100 CALM      30.03R
FOLEY*           N/A     64  64 100 CALM      30.01R
GRAND BAY*       N/A     63  63 100 CALM      30.04R
DAUPHIN ISLND* NOT AVBL
BON SCOUR NWR* NOT AVBL
GULF SHORES    FOG       62  62 100 W5        30.05R VSB 3/4

$$

ALZ051>060-290400-
INTERIOR SOUTHWEST AND SOUTH CENTRAL ALABAMA

CITY           SKY/WX    TMP DP  RH WIND       PRES   REMARKS
GREENVILLE     CLOUDY    63  60  90 NW6       30.04R
EVERGREEN      CLOUDY    64  62  93 N6        30.05R
CASTLEBERRY*   NOT AVBL
ATMORE*          N/A     63  63 100 VRB7      30.07R
DIXIE*           N/A     64  64 100 CALM      30.01S
ANDALUSIA/OPP  LGT RAIN  70  66  88 CALM      30.03S FOG
ANDALUSIA*       N/A     66  66 100 CALM      30.04R
FLORALA APT    CLOUDY    66  64  94 S3        30.05R
FLORALA*         N/A     64  64 100 CALM      30.01R

$$

FLZ001>006-290400-
WESTERN FLORIDA PANHANDLE

CITY           SKY/WX    TMP DP  RH WIND       PRES   REMARKS
PENSACOLA      CLOUDY    63  63 100 W3        30.03S
NAS PENSACOLA  NOT AVBL
MILTON         FOG       64  64 100 SW5       30.04R VSB 1/2
WHTNG S FIELD  FOG       67  64  90 CALM      30.04R VSB 1/2


CITY           SKY/WX    TMP DP  RH WIND       PRES   REMARKS
WALNUT HILL*   NOT AVBL
JAY*           NOT AVBL
DUKE FIELD     FOG       64  63  97 S3        30.04R VSB<1/4
CRESTVIEW      FOG       62  62 100 CALM      30.05R VSB 1/4
VALPARAISO     FOG       64  64  98 S3        30.03R VSB 1/4
DESTIN         CLOUDY    66  65  96 CALM      30.04R FOG

$$

MSZ076-079-290400-
INTERIOR SOUTHEAST MISSISSIPPI

CITY           SKY/WX    TMP DP  RH WIND       PRES   REMARKS
LEAKESVILLE*   NOT AVBL
AGRICOLA*      NOT AVBL

$$

MARINE OBSERVATIONS

STATION/POSITION TIME  TEMP    WIND        PRES    WAVE
                       AIR SEA DIR/SP/G            HT/PER
                 (UTC) (F)     (DEG/KT/KT) (MB)    (FT/S)
PASCAGOULA       0300   62     360/  6/  8 1017.2R
PETIT BOIS ISLND 0300   63     300/  5/  6 1018.0R
GRAND BAY        0200   63     300/  2     1018.0S
KATRINA CUT      0200   62     210/  4     1018.6R
CEDAR POINT      0200   62     250/  4     1017.3R
E DAUPHIN ISLAND 0200   63     220/  4/  6 1016.8S
MIDDLE BAY LIGHT 0200   57        CALM     1016.3S
USCG MOBILE BAY  0300   63 58  350/  6/  7 1016.4R
STATE DOCKS      0300   63 55              1017.1S
MEAHER PARK      0200   62     140/  2     1017.3R
WEEKS BAY        0200   62                   N/A
FORT MORGAN      0300   64     250/  8/  8 1017.1R
12 S ORANGE BCH  0300   69 67  190/  4/  6 1016.4R   2/ 7
PENSACOLA BAY    0300   67 60  310/  2/  2 1017.3R
64 S DAUPHIN ISL 0300   72 74  200/  6/  8 1017.0R   3/ 7

$$

SELECTED LOCATIONS ACROSS THE REGION

CITY           SKY/WX    TMP DP  RH WIND       PRES   REMARKS
NEW ORLEANS    LGT RAIN  57  54  89 NW5       30.12R FOG
GULFPORT       CLOUDY    59  56  89 N13       30.07R
PASCAGOULA AP  CLOUDY    63  60  90 NW6       30.05R
PASCAGOULA*      N/A     63  63 100 CALM      30.05R
HATTIESBURG    CLOUDY    54  52  93 CALM      30.11R
LAUREL         CLOUDY    52  48  87 NW3       30.11S
MERIDIAN       LGT RAIN  50  49  96 N8        30.12S
JACKSON        RAIN      47  46  97 NW3       30.14R
MONTGOMERY     CLOUDY    63  59  87 NW3       30.06R
TROY           CLOUDY    64  62  93 NE5       30.04S
KINSTON*       NOT AVBL
GENEVA*          N/A     68  66  94 CALM      30.06S
ASHFORD*         N/A     66  66 100 CALM      30.04R
DOTHAN         CLOUDY    68  66  93 S6        30.06F
PANAMA CITY    CLOUDY    68  66  93 S10       30.04S

$$



USA.gov is the U.S. government's official web portal to all federal, state and local government web resources and services.